CW8095 Weather Reports


time (UTC)temp
C
wind
direction
speed
KPH
gust
KPH
rain 1hr
cm
rain 24hr
cm
rain mn
cm
humidity
%
barometer
mb
20260902063544 25 139 4.8 12.9 0.00 0.00 0.00 54 1015.4
20260902062534 25 159 4.8 16.1 0.00 0.00 0.00 54 1015.5
20260902061553 25 149 4.8 14.5 0.00 0.00 0.00 54 1015.4
20260902060539 25 121 4.8 14.5 0.00 0.00 0.00 54 1015.2
20260902055519 25 154 4.8 12.9 0.00 0.00 0.00 54 1015.2
20260902054532 25 135 4.8 12.9 0.00 0.00 0.00 54 1015.1
20260902053543 26 140 4.8 12.9 0.00 0.00 0.00 54 1015.0
20260902052541 26 153 4.8 14.5 0.00 0.00 0.00 53 1015.2
20260902051529 26 130 4.8 12.9 0.00 0.00 0.00 53 1015.2
20260902050537 26 138 6.4 16.1 0.00 0.00 0.00 52 1015.1
20260902045536 26 136 4.8 12.9 0.00 0.00 0.00 51 1015.2
20260902044524 26 139 6.4 14.5 0.00 0.00 0.00 51 1015.1
20260902043544 26 130 6.4 14.5 0.00 0.00 0.00 50 1015.1
20260902042527 27 141 6.4 16.1 0.00 0.00 0.00 49 1015.2
20260902041530 27 134 4.8 11.3 0.00 0.00 0.00 48 1015.1
20260902040527 27 130 6.4 14.5 0.00 0.00 0.00 48 1015.0
20260902035526 27 133 8.0 16.1 0.00 0.00 0.00 46 1015.0
20260902034524 27 115 4.8 9.7 0.00 0.00 0.00 45 1014.7
20260902033521 28 96 3.2 4.8 0.00 0.00 0.00 45 1014.6
20260902032519 28 104 3.2 4.8 0.00 0.00 0.00 45 1014.6
20260902031517 28 113 3.2 4.8 0.00 0.00 0.00 44 1014.6
20260902030522 28 118 4.8 4.8 0.00 0.00 0.00 43 1014.4
20260902015022 30 121 4.8 6.4 0.00 0.00 0.00 38 1013.4
20260902014017 30 104 4.8 9.7 0.00 0.00 0.00 38 1013.3
20260902013027 30 116 4.8 6.4 0.00 0.00 0.00 37 1013.2
20260902012022 30 108 4.8 9.7 0.00 0.00 0.00 37 1013.2
20260902011017 31 107 4.8 6.4 0.00 0.00 0.00 37 1013.1
20260902010047 31 116 4.8 9.7 0.00 0.00 0.00 36 1013.0
20260902005022 31 94 4.8 6.4 0.00 0.00 0.00 35 1013.0
20260902004037 32 119 4.8 11.3 0.00 0.00 0.00 35 1013.0
20260902003047 32 120 8.0 16.1 0.00 0.00 0.00 34 1013.0
20260902002022 32 111 4.8 9.7 0.00 0.00 0.00 34 1013.0
20260902001038 33 101 4.8 9.7 0.00 0.00 0.00 33 1013.1
20260902000027 33 126 4.8 11.3 0.00 0.00 0.00 32 1013.3
20260901235022 33 115 6.4 12.9 0.00 0.00 0.00 31 1013.2
20260901234017 33 105 6.4 12.9 0.00 0.00 0.00 31 1013.2
20260901233027 33 105 6.4 12.9 0.00 0.00 0.00 32 1013.3
20260901232021 33 92 4.8 11.3 0.00 0.00 0.00 33 1013.2
20260901231016 33 113 6.4 12.9 0.00 0.00 0.00 33 1013.3
20260901230026 34 107 4.8 11.3 0.00 0.00 0.00 33 1013.4
20260901225021 35 97 4.8 11.3 0.00 0.00 0.00 32 1013.3
20260901224016 35 54 3.2 9.7 0.00 0.00 0.00 36 1013.4
20260901223026 35 38 9.7 24.1 0.00 0.00 0.00 37 1013.5
20260901222041 36 112 4.8 16.1 0.00 0.00 0.00 27 1013.3
20260901221116 35 63 6.4 14.5 0.00 0.00 0.00 28 1013.3
20260901220026 35 122 4.8 9.7 0.00 0.00 0.00 29 1013.4
20260901215021 36 96 3.2 9.7 0.00 0.00 0.00 28 1013.5
20260901214016 35 85 4.8 12.9 0.00 0.00 0.00 29 1013.6
20260901213026 35 105 6.4 14.5 0.00 0.00 0.00 29 1013.7
20260901212021 35 121 6.4 12.9 0.00 0.00 0.00 27 1013.8
20260901211016 36 118 6.4 16.1 0.00 0.00 0.00 27 1014.0
20260901210026 36 122 8.0 16.1 0.00 0.00 0.00 27 1014.0
20260901205041 36 124 8.0 14.5 0.00 0.00 0.00 27 1014.0
20260901204016 36 113 6.4 14.5 0.00 0.00 0.00 27 1014.1
20260901203026 36 112 4.8 12.9 0.00 0.00 0.00 28 1014.2
20260901202021 36 119 3.2 12.9 0.00 0.00 0.00 28 1014.4
20260901201016 37 84 6.4 16.1 0.00 0.00 0.00 26 1014.5
20260901200026 37 49 3.2 9.7 0.00 0.00 0.00 27 1014.5
20260901195021 36 177 4.8 11.3 0.00 0.00 0.00 28 1014.7
20260901194016 37 150 6.4 14.5 0.00 0.00 0.00 27 1014.7
20260901193026 35 131 4.8 9.7 0.00 0.00 0.00 29 1014.9
20260901192021 36 68 6.4 16.1 0.00 0.00 0.00 29 1015.1
20260901191017 37 125 3.2 11.3 0.00 0.00 0.00 27 1015.2
20260901190027 37 69 6.4 16.1 0.00 0.00 0.00 27 1015.4
20260901185022 37 135 3.2 9.7 0.00 0.00 0.00 28 1015.5
20260901184037 36 101 6.4 14.5 0.00 0.00 0.00 29 1015.8
20260901183047 36 145 1.6 6.4 0.00 0.00 0.00 30 1016.1
20260901182022 35 116 4.8 12.9 0.00 0.00 0.00 31 1016.3
20260901181017 35 94 8.0 16.1 0.00 0.00 0.00 31 1016.4
20260901180027 35 154 3.2 11.3 0.00 0.00 0.00 32 1016.5
20260901175022 36 85 4.8 12.9 0.00 0.00 0.00 30 1016.6
20260901174018 36 56 6.4 12.9 0.00 0.00 0.00 30 1016.7
20260901173027 36 72 3.2 11.3 0.00 0.00 0.00 30 1016.9
20260901172023 36 89 1.6 6.4 0.00 0.00 0.00 30 1017.0
20260901171018 35 64 4.8 9.7 0.00 0.00 0.00 33 1017.1
20260901170028 34 194 1.6 11.3 0.00 0.00 0.00 33 1017.2
20260901165023 34 132 4.8 11.3 0.00 0.00 0.00 34 1017.3
20260901164059 34 146 3.2 9.7 0.00 0.00 0.00 35 1017.4
20260901163028 34 244 1.6 4.8 0.00 0.00 0.00 35 1017.6
20260901162023 33 163 3.2 11.3 0.00 0.00 0.00 36 1017.6
20260901161018 33 146 3.2 9.7 0.00 0.00 0.00 37 1017.5
20260901160028 32 167 3.2 11.3 0.00 0.00 0.00 38 1017.6
20260901155023 32 161 3.2 12.9 0.00 0.00 0.00 38 1017.5
20260901154018 31 171 3.2 11.3 0.00 0.00 0.00 40 1017.5
20260901153028 31 227 1.6 4.8 0.00 0.00 0.00 42 1017.5
20260901152023 31 156 4.8 14.5 0.00 0.00 0.00 41 1017.4
20260901151019 31 161 1.6 6.4 0.00 0.00 0.00 45 1017.6
20260901150028 30 144 1.6 4.8 0.00 0.00 0.00 46 1017.5
20260901145024 29 159 1.6 6.4 0.00 0.00 0.00 49 1017.5
20260901144019 28 160 1.6 6.4 0.00 0.00 0.00 50 1017.6
20260901143029 28 167 1.6 6.4 0.00 0.00 0.00 51 1017.7
20260901142024 27 191 0.0 1.6 0.00 0.00 0.00 54 1017.7
20260901141019 27 163 1.6 6.4 0.00 0.00 0.00 56 1017.7
20260901140049 26 174 3.2 9.7 0.00 0.00 0.00 58 1017.7
20260901135024 25 151 3.2 9.7 0.00 0.00 0.00 60 1017.7
20260901134020 25 154 1.6 4.8 0.00 0.00 0.00 62 1017.7
20260901133030 24 152 1.6 6.4 0.00 0.00 0.00 63 1017.6
20260901132025 23 153 3.2 9.7 0.00 0.00 0.00 64 1017.6
20260901131020 23 160 0.0 1.6 0.00 0.00 0.00 63 1017.5
20260901130030 23 160 0.0 1.6 0.00 0.00 0.00 63 1017.5
20260901125025 22 160 0.0 1.6 0.00 0.00 0.00 64 1017.1
20260901124021 22 160 0.0 1.6 0.00 0.00 0.00 64 1017.0
20260901123015 22 160 0.0 1.6 0.00 0.00 0.00 64 1017.1
20260901122026 22 160 0.0 1.6 0.00 0.00 0.00 64 1016.9
20260901121020 22 160 1.6 3.2 0.00 0.00 0.00 64 1016.7
20260901120015 22 0.0 0.0 0.00 0.00 0.00 64 1016.7
20260901115025 22 160 0.0 3.2 0.00 0.00 0.00 64 1016.5
20260901114021 22 160 0.0 3.2 0.00 0.00 0.00 64 1016.6
20260901113016 22 160 1.6 3.2 0.00 0.00 0.00 63 1016.5
20260901112025 22 145 0.0 3.2 0.00 0.00 0.00 62 1016.4
20260901111020 22 137 0.0 1.6 0.00 0.00 0.00 62 1016.4
20260901110035 22 140 1.6 4.8 0.00 0.00 0.00 61 1016.2
20260901105025 22 160 1.6 4.8 0.00 0.00 0.00 61 1016.2
20260901104020 22 164 1.6 3.2 0.00 0.00 0.00 62 1016.2
20260901103015 22 165 0.0 1.6 0.00 0.00 0.00 62 1016.2
20260901102025 22 0.0 0.0 0.00 0.00 0.00 62 1016.2